Simultaneous Nadir Overpasses (SNOs) Predictions

Prediction of SNOs between METOP-C and LANDSAT-8 Satellite Orbit:

Table of predicted SNOs for the next 14.0 days since TLE Epoch: 9/28/2019
Index Date (METOP-C) Time (METOP-C) Lat,Lon (METOP-C) SZA (METOP-C ) Date (LANDSAT-8) Time (LANDSAT-8) Lat,Lon (LANDSAT-8) SZA (LANDSAT-8 ) Distance(km) Time Diff (sec)
1 09/30/2019 12:58:51 81.15, 25.60 86.28 09/30/2019 12:59:18 81.14, 25.52 86.28 1.39 27
2 09/30/2019 13:49:31 -81.17,-166.39 93.63 09/30/2019 13:48:44 -81.17,-166.49 93.66 1.79 47
3 10/03/2019 08:33:13 81.15, 91.99 87.39 10/03/2019 08:33:34 81.14, 91.94 87.38 1.11 21
4 10/03/2019 09:23:53 -81.17, -99.96 92.51 10/03/2019 09:23:00 -81.17,-100.06 92.55 1.75 53
5 10/06/2019 04:07:34 81.15, 158.39 88.49 10/06/2019 04:07:49 81.14, 158.33 88.48 1.28 15
6 10/06/2019 04:58:14 -81.17, -33.54 91.41 10/06/2019 04:57:15 -81.16, -33.65 91.45 2.03 59
7 10/08/2019 23:41:55 81.16,-134.83 89.63 10/08/2019 23:42:04 81.16,-134.93 89.62 1.67 9
8 10/09/2019 00:32:35 -81.18, 33.26 90.27 10/09/2019 00:31:30 -81.18, 33.11 90.31 2.61 65
9 10/11/2019 18:26:29 -80.09, 106.57 91.82 10/11/2019 18:27:43 -79.67, 108.22 92.04 56.59 74
10 10/11/2019 19:16:17 81.16, -68.42 90.71 10/11/2019 19:16:20 81.15, -68.57 90.69 2.53 3




NCC Satellite Simultaneous Nadir Overpasses (SNOs) Prediction Service
